CFB Gagetown, New Brunswick

Past 24 Hour Conditions

Date / Time
(ADT)
Conditions Temp
(°F)
Humidity
(%)
Dew Point
(°F)
Wind
(mph)
Pressure
(inches)
Visibility
(miles)
25 October 2014
22:00 Cloudy 42 100 42 NE 2 29.6 8
21:00 Cloudy 43 100 43 calm 29.6 8
20:00 Light Drizzle 43 100 43 calm 29.6 5
19:00 Light Drizzle 43 100 43 NNE 3 29.6 3
18:00 Light Drizzle 45   100 45 calm 29.6 6
17:00 Light Drizzle 45   99 45 N 3 29.6 4
16:00 Light Drizzle 45   100 45 N 6 29.6 4
15:00 Light Drizzle 45   100 45 N 5 29.6 4
14:00 Light Drizzle 45   100 45 NNW 8 29.6 3
13:00 Light Drizzle 45   98 44 NNW 8 29.6 5
12:00 Light Drizzle 44 99 44 N 5 29.6 3
11:00 Light Drizzle 44 100 44 N 8 29.6 3
10:00 Light Drizzle 44 100 44 N 7 29.6 3
9:00 Light Drizzle 43 100 43 NW 6 29.6 3
8:00 Light Drizzle 42 100 42 NW 7 29.6 2
7:00 Light Drizzle 42 100 42 NW 6 29.6 3
6:00 Light Drizzle 42 100 42 NNW 5 29.6 6
5:00 Cloudy 42 100 42 NNW 7 29.6 9
4:00 Light Drizzle 42 100 42 NNW 7 29.6 3
3:00 Light Drizzle 42 100 42 NNW 7 29.6 3
2:00 Light Drizzle 42 100 42 NNW 6 29.6 5
1:00 Light Drizzle 42 100 42 NNW 7 29.6 2
00:00 Light Drizzle 41   100 41 NNW 8 29.6 2
24 October 2014
23:00 Light Drizzle 42 100 42 NNW 7 29.6 2
22:00 Light Drizzle 42 100 42 NNW 8 29.6 3
N/A Not available
↑ Highest temperature
↓ Lowest temperature

If you require additional historical weather information, please visit Climate Data Online.

Date modified: